Flag for Russia Weather past 2 weeks in Yakutsk, Russia

Now
54 °F

Clear.


Feels Like: 52 °F
Forecast: 52 / 66 °F
Wind: 6 mph from Northwest

Location: Jakutsk

Current Time: Aug 24, 2014 at 5:08:01 AM

Latest Report: Aug 24, 2014 at 4:30 AM


Visibility: 10 mi

Pressure: 29.86 "Hg

Humidity: 94%

Dew point: 52 °F

Location of YakutskLocation

Historic Weather in Yakutsk — Graph

°F

Yakutsk temperature yesterday

Maximum temperature yesterday: 73 °F (at 6:00 PM)
Minimum temperature yesterday: 45 °F (at 4:00 AM)
Average temperature yesterday: 59 °F

Past Weeks' High & Low Weather Summary

 TemperatureHumidityPressure
High86 °F (Aug 10, 5:00 PM)100% (Aug 19, 3:30 AM)29.98 "Hg (Aug 19, 3:30 AM)
Low43 °F (Aug 15, 3:30 AM)28% (Aug 15, 4:00 PM)29.33 "Hg (Aug 21, 12:00 PM)
Average62 °F70%29.75 "Hg
* Reported Aug 9 4:00 AM — Aug 24 4:00 AM, Yakutsk, Weather by CustomWeather, © 2014

Note: Actual official high and low records may vary slightly from our data, if they occured in-between our weather recording intervals... More about our weather records

Advertising

Yakutsk weather history for previous 24 hours

 ConditionsComfort  
Time TempWeatherWind HumidityBarometerVisibility
4:00 AM
Aug 24
54 °FClear.No wind94%29.83 "Hg10 mi
3:30 AM57 °FClear.1 mph88%29.83 "Hg10 mi
3:00 AM57 °FClear.1 mph94%29.83 "Hg10 mi
2:30 AM57 °FClear.1 mph94%29.80 "Hg10 mi
2:00 AM59 °FClear.1 mph88%29.80 "Hg10 mi
1:30 AM59 °FClear.1 mph88%29.80 "Hg10 mi
1:00 AM59 °FClear.1 mph88%29.80 "Hg10 mi
12:30 AM59 °FClear.1 mph88%29.80 "Hg10 mi
12:00 AM57 °FClear.No wind94%29.80 "Hg10 mi
11:30 PM
Aug 23
57 °FClear.1 mph88%29.80 "Hg10 mi
11:00 PM59 °FClear.No wind88%29.80 "Hg10 mi
10:30 PM63 °FClear.1 mph83%29.80 "Hg10 mi
10:00 PM63 °FSunny.3 mph77%29.80 "Hg10 mi
9:30 PM64 °FSunny.3 mph78%29.80 "Hg10 mi
9:00 PM66 °FSunny.3 mph73%29.80 "Hg10 mi
8:30 PM68 °FSunny.3 mph69%29.80 "Hg10 mi
8:00 PM70 °FSunny.3 mph60%29.80 "Hg10 mi
7:30 PM72 °FSunny.6 mph57%29.80 "Hg10 mi
7:00 PM72 °FSunny.3 mph61%29.80 "Hg10 mi
6:30 PM72 °FSunny.1 mph57%29.80 "Hg10 mi
6:00 PM73 °FSunny.3 mph53%29.80 "Hg10 mi
5:30 PM72 °FSunny.3 mph57%29.80 "Hg10 mi
5:00 PM72 °FSunny.3 mph57%29.80 "Hg10 mi
4:30 PM70 °FSunny.3 mph64%29.80 "Hg10 mi
4:00 PM70 °FSunny.6 mph60%29.83 "Hg10 mi
3:30 PM70 °FSunny.6 mph60%29.83 "Hg10 mi
3:00 PM70 °FPartly sunny.6 mph64%29.83 "HgN/A
2:30 PM68 °FPartly sunny.6 mph69%29.83 "HgN/A
2:00 PM66 °FPartly sunny.3 mph68%29.86 "HgN/A
1:30 PM64 °FPartly sunny.3 mph73%29.86 "HgN/A
1:00 PM64 °FPartly sunny.1 mph73%29.86 "HgN/A
12:30 PM64 °FPartly sunny.3 mph68%29.86 "HgN/A
12:00 PM64 °FPartly sunny.3 mph68%29.86 "HgN/A
11:30 AM63 °FPartly sunny.3 mph73%29.89 "HgN/A
10:30 AM63 °FSunny.6 mph73%29.89 "Hg10 mi
10:00 AM61 °FSunny.3 mph77%29.89 "Hg10 mi
9:30 AM59 °FSunny.3 mph77%29.89 "Hg10 mi
9:00 AM55 °FSunny.1 mph88%29.89 "Hg10 mi
8:30 AM55 °FSunny.3 mph82%29.89 "Hg10 mi
8:00 AM54 °FSunny.3 mph94%29.92 "Hg10 mi
7:30 AM52 °FSunny.3 mph100%29.92 "Hg10 mi
7:00 AM48 °FFog.No wind94%29.89 "Hg3 mi
6:30 AM46 °FFog.No wind93%29.89 "Hg3 mi
6:00 AM46 °FFog.No wind93%29.89 "Hg3 mi
5:30 AM46 °FFog.No wind100%29.89 "Hg3 mi
5:00 AM46 °FFog.No wind93%29.89 "Hg1 mi
Weather by CustomWeather, © 2014

See weather overviewHow to use our weather pages